map of NIM home
Great Circle Mapper logo
NIM - Airport
Location
City:  Niamey, Niger
Name:Diori Hamani International Airport
ICAO / IATA:DRRN / NIM

Details
Type:Airport (Aerodrome, Airfield)
Use:Public/Civil, Military, International (customs port of entry)
Latitude:13°28'54"N (13.481547)
Longitude:2°11'01"E (2.183614)
Datum:WGS 1984
Elevation:732 ft (223 m)
Runways:2
Longest:9843 × 148 ft (3000 × 45 m), paved

Time
Time Zone:UTC+1
Local Time:

Weather
METAR:DRRN 021800Z 19008KT 9999 FEW026 30/20 Q1012 NOSIG
TAF:DRRN 021700Z 0218/0324 22008KT CAVOK PROB40
TEMPO 0308/0314 08025G40KT 0800 BLDU TSRA BKN020 FEW026CB

Related Locations
Nearby:
Farthest:FUT: 12371 mi / 19910 km
Futuna Island (Maopoopo Īle Futuna) [Pointe Vele], WF

Find:

   beyond  
but within

Other Information
Maps:
NOTAMs:
Links:
Sources:

  
flag of Niger   

Sectional Chart

Flight Planning
at skyvector.com

Satellite Image

Google Maps Satellite View

 

Copyright © 2004-2014 Karl L. Swartz. All rights reserved.
The Great Circle Mapper name and logo are trademarks of the Great Circle Mapper.
All other trademarks mentioned herein belong to their respective owners.
Please see credits for attibutions and further copyright information.

  Follow gcmap on Facebook Follow gcmap on Twitter

hCard Microformat

Geo Microformat